Tracking 21612 objects as of 20-Oct-2020
HD Live streaming from Space Station
objects crossing your sky now

COSMOS 2528

Track COSMOS 2528 now!
10-day predictions


NORAD ID: 43657
Int'l Code: 2018-082A
Perigee: 910.1 km
Apogee: 916.0 km
Inclination: 67.1 °
Period: 103.1 minutes
Semi major axis: 7284 km
RCS: Unknown
Launch date: October 25, 2018
Source: Commonwealth of Independent States (former USSR) (CIS)
Launch site: PLESETSK MISSILE AND SPACE COMPLEX (PKMTR)
aabbcc
Your satellite tracking list
Your tracking list is empty




NASA's NSSDC Master Catalog

Two Line Element Set (TLE):
1 43657U 18082A   20293.44172545 -.00000075  00000-0  00000+0 0  9994
2 43657  67.1496  59.9824 0004043 256.7725 103.2915 13.96508255101324
Source of the keplerian elements: AFSPC